TimeEDT,TemperatureF,Dew PointF,Humidity,Sea Level PressureIn,VisibilityMPH,Wind Direction,Wind SpeedMPH,Gust SpeedMPH,PrecipitationIn,Events,Conditions,WindDirDegrees,DateUTC
12:53 AM,59.0,57.0,93,30.13,10.0,Variable,4.6,-,N/A,,Clear,0,2014-03-09 05:53:00
1:53 AM,57.9,55.9,93,30.13,10.0,NE,5.8,-,N/A,,Clear,40,2014-03-09 06:53:00
3:53 AM,55.9,54.0,93,30.12,10.0,ENE,4.6,-,N/A,,Clear,60,2014-03-09 07:53:00
4:53 AM,57.0,55.0,93,30.10,10.0,NE,4.6,-,N/A,,Clear,50,2014-03-09 08:53:00
5:53 AM,55.0,54.0,96,30.11,9.0,ENE,4.6,-,N/A,,Clear,60,2014-03-09 09:53:00
6:53 AM,55.9,54.0,93,30.13,9.0,NE,3.5,-,N/A,,Clear,50,2014-03-09 10:53:00
7:53 AM,55.0,54.0,96,30.15,7.0,NE,3.5,-,N/A,,Clear,40,2014-03-09 11:53:00
8:53 AM,59.0,57.0,93,30.17,9.0,NE,4.6,-,N/A,,Clear,50,2014-03-09 12:53:00
9:53 AM,64.9,59.0,81,30.19,10.0,ENE,5.8,-,N/A,,Clear,60,2014-03-09 13:53:00
10:53 AM,70.0,57.9,65,30.19,10.0,ENE,6.9,-,N/A,,Clear,60,2014-03-09 14:53:00
11:53 AM,73.9,57.9,57,30.18,10.0,Variable,6.9,-,N/A,,Clear,0,2014-03-09 15:53:00
12:53 PM,73.9,55.9,53,30.17,10.0,Calm,Calm,-,N/A,,Scattered Clouds,0,2014-03-09 16:53:00
1:53 PM,73.9,60.1,62,30.15,10.0,SW,8.1,-,N/A,,Partly Cloudy,220,2014-03-09 17:53:00
2:53 PM,73.9,60.1,62,30.13,10.0,WSW,9.2,-,N/A,,Clear,250,2014-03-09 18:53:00
3:53 PM,75.0,59.0,57,30.11,10.0,West,10.4,-,N/A,,Clear,260,2014-03-09 19:53:00
4:53 PM,75.0,57.9,55,30.11,10.0,West,11.5,-,N/A,,Clear,260,2014-03-09 20:53:00
5:53 PM,73.9,54.0,50,30.09,10.0,SW,9.2,-,N/A,,Clear,230,2014-03-09 21:53:00
6:53 PM,72.0,57.9,61,30.10,10.0,West,8.1,-,N/A,,Clear,280,2014-03-09 22:53:00
7:53 PM,69.1,57.9,68,30.10,10.0,WNW,4.6,-,N/A,,Clear,300,2014-03-09 23:53:00
8:53 PM,69.1,59.0,70,30.11,10.0,WNW,3.5,-,N/A,,Clear,300,2014-03-10 00:53:00
9:53 PM,68.0,59.0,73,30.14,10.0,NW,3.5,-,N/A,,Clear,320,2014-03-10 01:53:00
10:53 PM,66.0,60.1,81,30.13,10.0,Calm,Calm,-,N/A,,Clear,0,2014-03-10 02:53:00
11:53 PM,64.0,60.1,87,30.13,10.0,ENE,3.5,-,N/A,,Clear,70,2014-03-10 03:53:00
12:53 AM,63.0,59.0,87,30.13,10.0,Calm,Calm,-,N/A,,Clear,0,2014-03-10 04:53:00